Find Starlink 37416

NORAD ID: 100310 Int'l Des: 2026-184 Owner: SPXS Country: US Constellation: starlink operational

Aktuelle Ansicht

3D-Globus wird geladen...

About Starlink 37416

Starlink 37416 (NORAD 100310) is a starlink constellation satellite launched Aug 12, 2026 by SPXS of US. with a mass of 575.00 kg.

Nächste Überflüge

Passes for default location (London). Set your location on the main map for personalized predictions.

Höhenverlauf

Loading altitude history...

Zweizeiliger Elementsatz

1 A0310U 26184K 26262.42280367 .00003743 00000-0 11822-3 0 9999
2 A0310 97.2845 127.5312 0001794 97.0172 263.1275 15.33442490 7131
Epoch: 19. Sept. 2026 • Age: 33 hours

Aktueller Status

Höhe 474.7 km
Apogäum / Perigäum N/A
Geschwindigkeit 7.63 km/s
Subsatellitenpunkt 60.04°N, 28.63°E
Startdatum 12. Aug. 2026
Alter 0.1 years
Typ internet

Technische Details

Klassifizierung Payload
Masse 575.00 kg
Trockenmasse 530.00 kg
Länge 0.30 m
Spannweite 29.00 m
Form ? Box + pan
Hersteller SPXS
Bus-Typ Starlink V2MO
Phasenstatus In Orbit
Besitzer/Staat SPXS/US

Most Searched